| time (UTC) | temp C | wind direction | speed KPH | gust KPH | rain 1hr cm | rain 24hr cm | rain mn cm | humidity % | barometer mb |
| 20260510115515 | 11 | 0.0 | 1.6 | 0.00 | 0.64 | 0.08 | 91 | 1014.6 | |
| 20260510114515 | 11 | 0.0 | 0.0 | 0.00 | 0.66 | 0.08 | 91 | 1014.8 | |
| 20260510113516 | 11 | 0.0 | 0.0 | 0.00 | 0.69 | 0.08 | 91 | 1014.1 | |
| 20260510112515 | 11 | 0.0 | 0.0 | 0.00 | 0.69 | 0.08 | 91 | 1013.7 | |
| 20260510111515 | 11 | 0.0 | 0.0 | 0.00 | 0.69 | 0.08 | 91 | 1013.6 | |
| 20260510110515 | 11 | 0.0 | 0.0 | 0.00 | 0.71 | 0.08 | 91 | 1013.3 | |
| 20260510105515 | 11 | 0.0 | 0.0 | 0.00 | 0.74 | 0.08 | 91 | 1013.1 | |
| 20260510104515 | 11 | 0.0 | 0.0 | 0.00 | 0.74 | 0.08 | 91 | 1013.1 | |
| 20260510103535 | 11 | 0.0 | 0.0 | 0.00 | 0.74 | 0.08 | 91 | 1012.7 | |
| 20260510102515 | 11 | 0.0 | 0.0 | 0.00 | 0.74 | 0.08 | 91 | 1012.4 | |
| 20260510101515 | 11 | 94 | 0.0 | 1.6 | 0.00 | 0.74 | 0.08 | 91 | 1012.1 |
| 20260510100515 | 10 | 0.0 | 0.0 | 0.00 | 0.74 | 0.08 | 91 | 1012.1 | |
| 20260510095515 | 10 | 0.0 | 0.0 | 0.00 | 0.74 | 0.08 | 91 | 1011.9 | |
| 20260510094515 | 10 | 0.0 | 0.0 | 0.00 | 0.76 | 0.08 | 91 | 1011.7 | |
| 20260510093515 | 10 | 0.0 | 0.0 | 0.00 | 0.76 | 0.08 | 91 | 1011.5 | |
| 20260510092515 | 10 | 0.0 | 0.0 | 0.00 | 0.76 | 0.08 | 91 | 1011.3 | |
| 20260510091515 | 11 | 0.0 | 0.0 | 0.00 | 0.79 | 0.08 | 91 | 1011.3 | |
| 20260510090535 | 11 | 0.0 | 0.0 | 0.00 | 0.79 | 0.08 | 91 | 1011.1 | |
| 20260510085535 | 11 | 0.0 | 0.0 | 0.00 | 0.79 | 0.08 | 91 | 1010.9 | |
| 20260510084535 | 11 | 0.0 | 0.0 | 0.00 | 0.79 | 0.08 | 91 | 1010.7 | |
| 20260510083515 | 11 | 0.0 | 0.0 | 0.00 | 0.79 | 0.08 | 91 | 1010.7 | |
| 20260510082515 | 11 | 0.0 | 1.6 | 0.00 | 0.79 | 0.08 | 91 | 1010.6 | |
| 20260510081515 | 11 | 94 | 0.0 | 1.6 | 0.00 | 0.79 | 0.08 | 91 | 1010.6 |
| 20260510080515 | 11 | 80 | 0.0 | 1.6 | 0.00 | 0.79 | 0.08 | 91 | 1010.6 |
| 20260510075515 | 12 | 67 | 1.6 | 3.2 | 0.00 | 0.79 | 0.08 | 91 | 1010.4 |
| 20260510074516 | 12 | 11 | 1.6 | 1.6 | 0.00 | 0.79 | 0.08 | 91 | 1010.2 |
| 20260510073515 | 12 | 0.0 | 1.6 | 0.00 | 0.79 | 0.08 | 90 | 1010.2 | |
| 20260510072515 | 12 | 185 | 0.0 | 1.6 | 0.00 | 0.79 | 0.08 | 90 | 1010.1 |
| 20260510071515 | 12 | 108 | 0.0 | 1.6 | 0.00 | 0.79 | 0.08 | 90 | 1010.1 |
| 20260510070515 | 12 | 0.0 | 1.6 | 0.00 | 0.79 | 0.08 | 90 | 1010.0 | |
| 20260510065515 | 12 | 0.0 | 0.0 | 0.00 | 0.79 | 0.08 | 90 | 1009.9 | |
| 20260510064517 | 12 | 0.0 | 0.0 | 0.00 | 0.79 | 0.08 | 90 | 1009.9 | |
| 20260510063517 | 12 | 0.0 | 1.6 | 0.00 | 0.79 | 0.08 | 90 | 1009.8 | |
| 20260510062515 | 12 | 50 | 0.0 | 3.2 | 0.03 | 0.79 | 0.08 | 90 | 1009.7 |
| 20260510061517 | 12 | 76 | 0.0 | 1.6 | 0.05 | 0.79 | 0.08 | 90 | 1009.9 |
| 20260510060538 | 13 | 83 | 1.6 | 3.2 | 0.08 | 0.79 | 0.08 | 90 | 1009.8 |
| 20260510055517 | 13 | 98 | 1.6 | 3.2 | 0.08 | 0.79 | 0.08 | 90 | 1010.1 |
| 20260510054517 | 13 | 89 | 1.6 | 1.6 | 0.08 | 0.79 | 0.08 | 90 | 1010.2 |
| 20260510053538 | 13 | 93 | 1.6 | 3.2 | 0.08 | 0.79 | 0.08 | 90 | 1010.3 |
| 20260510052517 | 13 | 281 | 0.0 | 6.4 | 0.05 | 0.76 | 0.05 | 90 | 1011.0 |
| 20260510051555 | 13 | 289 | 6.4 | 24.1 | 0.03 | 0.74 | 0.03 | 90 | 1011.0 |
| 20260510050517 | 12 | 0.0 | 0.0 | 0.00 | 0.71 | 0.00 | 90 | 1009.7 | |
| 20260510045517 | 12 | 0.0 | 0.0 | 0.00 | 0.71 | 0.00 | 90 | 1009.6 | |
| 20260510044516 | 13 | 0.0 | 0.0 | 0.00 | 0.71 | 0.00 | 90 | 1009.6 | |
| 20260510043537 | 13 | 0.0 | 0.0 | 0.00 | 0.74 | 0.00 | 90 | 1009.5 | |
| 20260510042517 | 13 | 0.0 | 1.6 | 0.03 | 0.74 | 0.00 | 90 | 1009.6 | |
| 20260510041516 | 13 | 22 | 0.0 | 1.6 | 0.03 | 0.74 | 0.00 | 90 | 1009.7 |
| 20260510040517 | 13 | 351 | 0.0 | 4.8 | 0.05 | 0.74 | 0.00 | 90 | 1009.6 |
| 20260510035537 | 13 | 190 | 0.0 | 3.2 | 0.05 | 0.74 | 0.74 | 90 | 1009.4 |
| 20260510034516 | 13 | 259 | 1.6 | 3.2 | 0.05 | 0.74 | 0.74 | 90 | 1009.6 |
| 20260510033516 | 13 | 105 | 0.0 | 1.6 | 0.05 | 0.74 | 0.74 | 90 | 1009.0 |
| 20260510032517 | 13 | 0.0 | 0.0 | 0.03 | 0.71 | 0.71 | 90 | 1009.2 | |
| 20260510031516 | 13 | 0.0 | 1.6 | 0.03 | 0.71 | 0.71 | 90 | 1009.0 | |
| 20260510030516 | 13 | 1 | 1.6 | 3.2 | 0.00 | 0.69 | 0.69 | 89 | 1008.8 |
| 20260510025516 | 13 | 108 | 0.0 | 1.6 | 0.00 | 0.69 | 0.69 | 89 | 1008.8 |
| 20260510024516 | 13 | 86 | 1.6 | 4.8 | 0.00 | 0.69 | 0.69 | 89 | 1009.0 |
| 20260510023516 | 13 | 0.0 | 3.2 | 0.00 | 0.69 | 0.69 | 89 | 1009.0 | |
| 20260510022517 | 13 | 0.0 | 3.2 | 0.10 | 0.69 | 0.69 | 89 | 1009.0 | |
| 20260510021516 | 13 | 0.0 | 0.0 | 0.25 | 0.69 | 0.69 | 88 | 1009.0 | |
| 20260510020516 | 14 | 0.0 | 0.0 | 0.48 | 0.69 | 0.69 | 88 | 1009.2 | |
| 20260510015536 | 14 | 0.0 | 0.0 | 0.48 | 0.69 | 0.69 | 87 | 1009.3 | |
| 20260510014517 | 14 | 91 | 0.0 | 3.2 | 0.48 | 0.69 | 0.69 | 86 | 1009.1 |
| 20260510013516 | 15 | 303 | 0.0 | 8.0 | 0.48 | 0.69 | 0.69 | 85 | 1008.9 |
| 20260510012516 | 16 | 280 | 6.4 | 12.9 | 0.38 | 0.58 | 0.58 | 81 | 1009.2 |
| 20260510011536 | 17 | 274 | 4.8 | 12.9 | 0.23 | 0.43 | 0.43 | 71 | 1008.9 |
| 20260510010536 | 19 | 281 | 4.8 | 17.7 | 0.00 | 0.20 | 0.20 | 61 | 1008.2 |
| 20260510005517 | 19 | 90 | 1.6 | 11.3 | 0.00 | 0.20 | 0.20 | 58 | 1006.8 |
| 20260510004536 | 19 | 144 | 1.6 | 8.0 | 0.00 | 0.23 | 0.20 | 58 | 1006.7 |
| 20260510003557 | 19 | 243 | 3.2 | 9.7 | 0.00 | 0.23 | 0.20 | 58 | 1006.8 |
| 20260510002536 | 20 | 226 | 3.2 | 11.3 | 0.00 | 0.23 | 0.20 | 57 | 1007.0 |
| 20260510001516 | 20 | 176 | 3.2 | 8.0 | 0.00 | 0.23 | 0.20 | 57 | 1006.9 |
| 20260510000537 | 20 | 228 | 4.8 | 12.9 | 0.00 | 0.23 | 0.20 | 56 | 1006.9 |
| 20260509235516 | 20 | 193 | 4.8 | 14.5 | 0.00 | 0.23 | 0.20 | 55 | 1006.8 |
| 20260509234516 | 21 | 244 | 3.2 | 12.9 | 0.00 | 0.23 | 0.20 | 54 | 1006.7 |
| 20260509233516 | 20 | 209 | 4.8 | 20.9 | 0.00 | 0.23 | 0.20 | 54 | 1006.6 |
| 20260509232536 | 21 | 229 | 4.8 | 22.5 | 0.00 | 0.23 | 0.20 | 54 | 1006.6 |
| 20260509231516 | 21 | 242 | 6.4 | 19.3 | 0.00 | 0.23 | 0.20 | 54 | 1006.5 |
| 20260509230516 | 21 | 229 | 4.8 | 19.3 | 0.00 | 0.23 | 0.20 | 54 | 1006.4 |
| 20260509225516 | 21 | 247 | 4.8 | 20.9 | 0.00 | 0.23 | 0.20 | 54 | 1006.5 |
| 20260509224516 | 21 | 221 | 3.2 | 20.9 | 0.00 | 0.23 | 0.20 | 54 | 1006.6 |
| 20260509223516 | 21 | 114 | 3.2 | 20.9 | 0.00 | 0.23 | 0.20 | 54 | 1006.7 |
| 20260509222516 | 21 | 232 | 8.0 | 24.1 | 0.00 | 0.23 | 0.20 | 53 | 1006.7 |
| 20260509221516 | 21 | 222 | 6.4 | 19.3 | 0.00 | 0.23 | 0.20 | 53 | 1006.7 |
| 20260509220516 | 21 | 246 | 6.4 | 17.7 | 0.00 | 0.23 | 0.20 | 53 | 1006.8 |
| 20260509215516 | 21 | 111 | 6.4 | 17.7 | 0.00 | 0.23 | 0.20 | 53 | 1006.8 |
| 20260509214516 | 21 | 169 | 6.4 | 16.1 | 0.00 | 0.23 | 0.20 | 53 | 1006.8 |
| 20260509213516 | 22 | 259 | 3.2 | 12.9 | 0.00 | 0.23 | 0.20 | 53 | 1006.9 |
| 20260509212515 | 21 | 259 | 3.2 | 20.9 | 0.00 | 0.23 | 0.20 | 54 | 1007.0 |
| 20260509211557 | 21 | 242 | 6.4 | 19.3 | 0.00 | 0.23 | 0.20 | 53 | 1007.2 |
| 20260509210516 | 21 | 239 | 6.4 | 17.7 | 0.00 | 0.23 | 0.20 | 54 | 1007.2 |
| 20260509205515 | 21 | 243 | 6.4 | 16.1 | 0.00 | 0.23 | 0.20 | 53 | 1007.1 |
| 20260509204516 | 21 | 130 | 6.4 | 20.9 | 0.00 | 0.23 | 0.20 | 55 | 1007.2 |
| 20260509203516 | 21 | 249 | 4.8 | 14.5 | 0.00 | 0.23 | 0.20 | 56 | 1007.4 |
| 20260509202516 | 21 | 247 | 6.4 | 19.3 | 0.00 | 0.23 | 0.20 | 56 | 1007.3 |
| 20260509201517 | 21 | 257 | 6.4 | 12.9 | 0.00 | 0.23 | 0.20 | 56 | 1007.5 |
| 20260509200515 | 21 | 253 | 6.4 | 17.7 | 0.00 | 0.23 | 0.20 | 56 | 1007.9 |
| 20260509195515 | 21 | 228 | 8.0 | 16.1 | 0.00 | 0.23 | 0.20 | 58 | 1008.1 |
| 20260509194516 | 20 | 205 | 4.8 | 16.1 | 0.00 | 0.23 | 0.20 | 58 | 1008.1 |
| 20260509193516 | 20 | 174 | 4.8 | 16.1 | 0.00 | 0.23 | 0.20 | 60 | 1008.3 |
| 20260509192517 | 20 | 241 | 4.8 | 16.1 | 0.00 | 0.23 | 0.20 | 62 | 1008.3 |
| 20260509191516 | 20 | 249 | 4.8 | 20.9 | 0.00 | 0.23 | 0.20 | 60 | 1008.4 |
| 20260509190536 | 20 | 199 | 3.2 | 19.3 | 0.00 | 0.23 | 0.20 | 63 | 1008.6 |
| 20260509185515 | 19 | 191 | 4.8 | 17.7 | 0.00 | 0.23 | 0.20 | 63 | 1008.6 |
| 20260509184516 | 19 | 203 | 4.8 | 16.1 | 0.00 | 0.23 | 0.20 | 65 | 1008.7 |
| 20260509183516 | 19 | 236 | 6.4 | 17.7 | 0.00 | 0.23 | 0.20 | 66 | 1008.7 |
| 20260509182535 | 18 | 241 | 6.4 | 20.9 | 0.00 | 0.23 | 0.20 | 68 | 1008.7 |
| 20260509181535 | 18 | 247 | 4.8 | 14.5 | 0.00 | 0.23 | 0.20 | 67 | 1008.7 |
| 20260509180515 | 18 | 232 | 4.8 | 12.9 | 0.00 | 0.23 | 0.20 | 68 | 1008.7 |
| 20260509175536 | 18 | 187 | 4.8 | 17.7 | 0.00 | 0.23 | 0.20 | 67 | 1008.7 |
| 20260509174515 | 18 | 247 | 4.8 | 20.9 | 0.00 | 0.23 | 0.20 | 70 | 1008.9 |
| 20260509173516 | 17 | 249 | 4.8 | 16.1 | 0.00 | 0.23 | 0.20 | 72 | 1008.9 |
| 20260509172516 | 17 | 224 | 4.8 | 16.1 | 0.00 | 0.23 | 0.20 | 72 | 1009.0 |
| 20260509171515 | 17 | 144 | 4.8 | 12.9 | 0.00 | 0.23 | 0.20 | 75 | 1009.0 |
| 20260509170515 | 16 | 254 | 4.8 | 14.5 | 0.00 | 0.23 | 0.20 | 76 | 1009.0 |
| 20260509165516 | 16 | 218 | 4.8 | 12.9 | 0.00 | 0.23 | 0.20 | 76 | 1009.1 |
| 20260509164516 | 16 | 255 | 3.2 | 12.9 | 0.00 | 0.23 | 0.20 | 79 | 1009.0 |
| 20260509163555 | 16 | 210 | 4.8 | 17.7 | 0.00 | 0.23 | 0.20 | 79 | 1008.9 |
| 20260509162515 | 15 | 237 | 6.4 | 16.1 | 0.00 | 0.23 | 0.20 | 81 | 1008.9 |
| 20260509161516 | 15 | 180 | 3.2 | 8.0 | 0.00 | 0.23 | 0.20 | 82 | 1008.8 |
| 20260509160515 | 15 | 222 | 3.2 | 12.9 | 0.00 | 0.23 | 0.20 | 82 | 1008.9 |
| 20260509155515 | 15 | 224 | 4.8 | 16.1 | 0.00 | 0.23 | 0.20 | 82 | 1008.7 |
| 20260509154515 | 15 | 232 | 3.2 | 17.7 | 0.00 | 0.23 | 0.20 | 82 | 1008.7 |
| 20260509153515 | 15 | 205 | 3.2 | 11.3 | 0.00 | 0.23 | 0.20 | 83 | 1008.6 |
| 20260509152516 | 15 | 228 | 1.6 | 12.9 | 0.00 | 0.23 | 0.20 | 82 | 1008.5 |
| 20260509151515 | 15 | 253 | 1.6 | 11.3 | 0.00 | 0.23 | 0.20 | 84 | 1008.5 |
| 20260509150516 | 14 | 241 | 3.2 | 9.7 | 0.00 | 0.23 | 0.20 | 84 | 1008.5 |
| 20260509145515 | 14 | 235 | 4.8 | 14.5 | 0.03 | 0.23 | 0.20 | 86 | 1008.4 |
| 20260509144515 | 13 | 230 | 1.6 | 9.7 | 0.03 | 0.23 | 0.20 | 87 | 1008.4 |
| 20260509143515 | 13 | 244 | 3.2 | 12.9 | 0.03 | 0.23 | 0.20 | 88 | 1008.4 |
| 20260509142515 | 12 | 266 | 3.2 | 9.7 | 0.03 | 0.23 | 0.20 | 89 | 1008.4 |
| 20260509141515 | 12 | 222 | 3.2 | 11.3 | 0.03 | 0.23 | 0.20 | 90 | 1008.4 |
| 20260509140535 | 12 | 221 | 1.6 | 11.3 | 0.03 | 0.23 | 0.20 | 90 | 1008.5 |
| 20260509135515 | 12 | 248 | 0.0 | 6.4 | 0.00 | 0.20 | 0.18 | 90 | 1008.5 |
| 20260509134515 | 12 | 229 | 1.6 | 6.4 | 0.00 | 0.20 | 0.18 | 90 | 1008.6 |
| 20260509133535 | 12 | 206 | 0.0 | 4.8 | 0.00 | 0.20 | 0.18 | 90 | 1008.7 |
| 20260509132536 | 12 | 238 | 1.6 | 3.2 | 0.00 | 0.20 | 0.18 | 90 | 1008.8 |
| 20260509131535 | 12 | 241 | 1.6 | 4.8 | 0.00 | 0.20 | 0.18 | 90 | 1008.8 |
| 20260509130515 | 11 | 199 | 0.0 | 4.8 | 0.00 | 0.20 | 0.18 | 90 | 1008.7 |
| 20260509125515 | 11 | 247 | 1.6 | 8.0 | 0.00 | 0.20 | 0.18 | 90 | 1008.8 |
| 20260509124515 | 11 | 209 | 0.0 | 6.4 | 0.03 | 0.20 | 0.18 | 90 | 1008.8 |
| 20260509123515 | 11 | 194 | 1.6 | 6.4 | 0.05 | 0.20 | 0.18 | 90 | 1008.7 |
| 20260509122515 | 11 | 217 | 0.0 | 6.4 | 0.05 | 0.20 | 0.18 | 90 | 1008.7 |
| 20260509121515 | 11 | 188 | 1.6 | 11.3 | 0.05 | 0.20 | 0.18 | 90 | 1008.9 |
| 20260509120535 | 11 | 224 | 1.6 | 8.0 | 0.08 | 0.20 | 0.18 | 90 | 1009.1 |